KI6IKQ Weather Reports


time (UTC)temp
C
wind
direction
speed
KPH
gust
KPH
rain 1hr
cm
rain 24hr
cm
rain mn
cm
humidity
%
barometer
mb
20260508041803 18 279 3.2 6.4 0.00 0.00 0.00 66 1015.2
20260508040903 18 309 3.2 11.3 0.00 0.00 0.00 65 1015.1
20260508040003 19 300 3.2 12.9 0.00 0.00 0.00 66 1014.8
20260508035403 20 280 3.2 9.7 0.00 0.00 0.00 67 1014.8
20260508034503 20 292 3.2 6.4 0.00 0.00 0.00 65 1014.7
20260508033603 20 306 3.2 12.9 0.00 0.00 0.00 64 1014.7
20260508032703 21 311 4.8 12.9 0.00 0.00 0.00 69 1014.5
20260508031803 21 297 3.2 8.0 0.00 0.00 0.00 68 1014.4
20260508030903 22 289 3.2 11.3 0.00 0.00 0.00 67 1014.2
20260508030024 23 282 4.8 11.3 0.00 0.00 0.00 65 1014.2
20260508025403 23 282 4.8 11.3 0.00 0.00 0.00 63 1014.2
20260508024503 24 294 4.8 11.3 0.00 0.00 0.00 61 1014.1
20260508023603 25 308 6.4 16.1 0.00 0.00 0.00 59 1014.0
20260508022703 25 291 4.8 11.3 0.00 0.00 0.00 58 1013.9
20260508021803 26 318 6.4 14.5 0.00 0.00 0.00 58 1013.9
20260508020903 26 301 6.4 14.5 0.00 0.00 0.00 56 1013.9
20260508020003 26 309 6.4 14.5 0.00 0.00 0.00 55 1013.9
20260508015403 27 302 6.4 16.1 0.00 0.00 0.00 54 1013.9
20260508014503 27 324 8.0 16.1 0.00 0.00 0.00 53 1013.9
20260508013603 27 325 11.3 20.9 0.00 0.00 0.00 52 1013.9
20260508012703 28 321 9.7 17.7 0.00 0.00 0.00 50 1013.8
20260508011824 28 328 8.0 19.3 0.00 0.00 0.00 49 1013.9
20260508010924 30 318 8.0 17.7 0.00 0.00 0.00 47 1013.9
20260508010003 30 312 8.0 14.5 0.00 0.00 0.00 48 1013.8
20260508005403 30 302 8.0 14.5 0.00 0.00 0.00 47 1013.8
20260508004503 30 299 4.8 12.9 0.00 0.00 0.00 47 1013.7
20260508003603 30 303 6.4 12.9 0.00 0.00 0.00 47 1013.8
20260508002703 30 284 4.8 12.9 0.00 0.00 0.00 47 1013.9
20260508001803 30 325 8.0 16.1 0.00 0.00 0.00 50 1013.9
20260508000903 30 318 6.4 16.1 0.00 0.00 0.00 49 1013.9
20260508000024 30 318 8.0 14.5 0.00 0.00 0.00 50 1013.9
20260507235424 30 307 8.0 14.5 0.00 0.00 0.00 50 1013.9
20260507234524 30 311 6.4 14.5 0.00 0.00 0.00 48 1014.0
20260507233624 30 321 8.0 16.1 0.00 0.00 0.00 49 1014.1
20260507232724 30 308 6.4 17.7 0.00 0.00 0.00 48 1014.2
20260507231803 29 309 6.4 16.1 0.00 0.00 0.00 50 1014.4
20260507230903 29 308 8.0 14.5 0.00 0.00 0.00 50 1014.5
20260507230024 28 312 8.0 17.7 0.00 0.00 0.00 50 1014.6
20260507225403 28 307 8.0 14.5 0.00 0.00 0.00 50 1014.7
20260507224503 28 311 8.0 16.1 0.00 0.00 0.00 51 1014.7
20260507223603 28 322 6.4 17.7 0.00 0.00 0.00 51 1014.8
20260507222703 27 340 8.0 19.3 0.00 0.00 0.00 52 1014.8
20260507221803 27 341 6.4 17.7 0.00 0.00 0.00 52 1015.0
20260507220903 27 329 6.4 16.1 0.00 0.00 0.00 53 1015.0
20260507220003 27 330 8.0 17.7 0.00 0.00 0.00 54 1015.3
20260507215403 27 332 8.0 19.3 0.00 0.00 0.00 53 1015.4
20260507214503 27 333 8.0 17.7 0.00 0.00 0.00 53 1015.4
20260507213603 27 329 6.4 17.7 0.00 0.00 0.00 54 1015.5
20260507212703 27 320 6.4 16.1 0.00 0.00 0.00 54 1015.8
20260507211803 27 319 8.0 17.7 0.00 0.00 0.00 56 1015.9
20260507210903 26 332 8.0 17.7 0.00 0.00 0.00 55 1016.0
20260507210003 26 332 6.4 14.5 0.00 0.00 0.00 57 1016.1
20260507205403 26 325 6.4 14.5 0.00 0.00 0.00 57 1016.2
20260507204503 26 320 6.4 12.9 0.00 0.00 0.00 56 1016.3
20260507203603 26 309 4.8 12.9 0.00 0.00 0.00 58 1016.4
20260507202703 26 323 6.4 19.3 0.00 0.00 0.00 58 1016.4
20260507201803 25 328 4.8 17.7 0.00 0.00 0.00 58 1016.6
20260507200903 25 308 6.4 14.5 0.00 0.00 0.00 57 1016.6
20260507200003 25 326 6.4 14.5 0.00 0.00 0.00 59 1016.7
20260507195403 25 318 8.0 14.5 0.00 0.00 0.00 60 1016.8
20260507194503 25 315 6.4 17.7 0.00 0.00 0.00 61 1017.0
20260507193603 25 322 4.8 14.5 0.00 0.00 0.00 62 1017.0
20260507192703 25 314 4.8 12.9 0.00 0.00 0.00 61 1016.9
20260507191803 25 299 4.8 12.9 0.00 0.00 0.00 62 1017.1
20260507190903 24 331 6.4 9.7 0.00 0.00 0.00 62 1017.3
20260507190004 24 327 6.4 16.1 0.00 0.00 0.00 62 1017.4
20260507185403 24 321 4.8 16.1 0.00 0.00 0.00 64 1017.3
20260507184504 23 310 4.8 12.9 0.00 0.00 0.00 65 1017.5
20260507183603 23 270 3.2 11.3 0.00 0.00 0.00 64 1017.6
20260507182703 23 306 4.8 12.9 0.00 0.00 0.00 65 1017.6
20260507181803 23 1 4.8 16.1 0.00 0.00 0.00 64 1017.6
20260507180903 23 327 4.8 11.3 0.00 0.00 0.00 67 1017.6
20260507180003 22 311 3.2 9.7 0.00 0.00 0.00 68 1017.7
20260507175403 22 301 4.8 11.3 0.00 0.00 0.00 68 1017.7
20260507174524 22 333 4.8 12.9 0.00 0.00 0.00 70 1017.8
20260507173603 21 310 4.8 12.9 0.00 0.00 0.00 70 1017.8
20260507172703 21 300 4.8 8.0 0.00 0.00 0.00 70 1017.8
20260507171803 21 298 4.8 11.3 0.00 0.00 0.00 71 1017.8
20260507170903 20 285 4.8 9.7 0.00 0.00 0.00 72 1017.9
20260507170024 20 281 4.8 9.7 0.00 0.00 0.00 74 1018.0
20260507165403 20 302 4.8 8.0 0.00 0.00 0.00 74 1018.0
20260507164503 20 304 3.2 9.7 0.00 0.00 0.00 76 1018.2
20260507163624 19 301 3.2 8.0 0.00 0.00 0.00 77 1018.1
20260507162703 18 294 3.2 8.0 0.00 0.00 0.00 78 1018.1
20260507161824 18 296 3.2 8.0 0.00 0.00 0.00 79 1018.2
20260507160903 18 296 1.6 4.8 0.00 0.00 0.00 81 1018.4
20260507160003 17 300 3.2 6.4 0.00 0.00 0.00 82 1018.3
20260507155403 17 313 3.2 8.0 0.00 0.00 0.00 83 1018.4
20260507154503 17 319 3.2 6.4 0.00 0.00 0.00 84 1018.3
20260507153603 16 319 4.8 8.0 0.00 0.00 0.00 86 1018.4
20260507152703 16 302 4.8 11.3 0.00 0.00 0.00 87 1018.4
20260507151803 15 285 3.2 9.7 0.00 0.00 0.00 88 1018.6
20260507150903 15 289 4.8 11.3 0.00 0.00 0.00 88 1018.5
20260507150003 15 300 4.8 8.0 0.00 0.00 0.00 89 1018.5
20260507145403 15 287 4.8 11.3 0.00 0.00 0.00 89 1018.6
20260507144503 14 287 4.8 9.7 0.00 0.00 0.00 90 1018.5
20260507143603 14 302 4.8 11.3 0.00 0.00 0.00 90 1018.4
20260507142724 14 306 4.8 11.3 0.00 0.00 0.00 91 1018.4
20260507141824 13 297 3.2 4.8 0.00 0.00 0.00 91 1018.3
20260507140924 13 295 1.6 4.8 0.00 0.00 0.00 92 1018.3
20260507140024 12 296 1.6 4.8 0.00 0.00 0.00 92 1018.1
20260507135424 12 294 1.6 4.8 0.00 0.00 0.00 91 1017.9
20260507134524 12 297 1.6 6.4 0.00 0.00 0.00 91 1017.8
20260507133624 12 309 1.6 6.4 0.00 0.00 0.00 91 1017.8
20260507132724 12 322 1.6 6.4 0.00 0.00 0.00 91 1017.8
20260507131824 12 311 1.6 4.8 0.00 0.00 0.00 90 1017.7
20260507130926 12 305 1.6 4.8 0.00 0.00 0.00 90 1017.6
20260507130003 12 308 0.0 3.2 0.00 0.00 0.00 90 1017.6
20260507125403 12 309 1.6 6.4 0.00 0.00 0.00 90 1017.4
20260507124503 12 303 1.6 6.4 0.00 0.00 0.00 90 1017.5
20260507123603 12 303 1.6 4.8 0.00 0.00 0.00 90 1017.5
20260507122705 12 303 1.6 4.8 0.00 0.00 0.00 90 1017.4
20260507121824 12 303 0.0 3.2 0.00 0.00 0.00 90 1017.5
20260507120924 12 302 1.6 4.8 0.00 0.00 0.00 90 1017.4
20260507120024 12 302 1.6 4.8 0.00 0.00 0.00 90 1017.5
20260507115424 12 300 1.6 3.2 0.00 0.00 0.00 90 1017.5
20260507114524 12 306 1.6 3.2 0.00 0.00 0.00 89 1017.6
20260507113603 12 307 1.6 4.8 0.00 0.00 0.00 89 1017.5
20260507112703 12 300 1.6 4.8 0.00 0.00 0.00 89 1017.5
20260507111803 12 303 1.6 4.8 0.00 0.00 0.00 89 1017.5
20260507110903 12 313 1.6 3.2 0.00 0.00 0.00 88 1017.5
20260507110003 12 287 1.6 6.4 0.00 0.00 0.00 88 1017.3
20260507105403 12 272 3.2 6.4 0.00 0.00 0.00 88 1017.4
20260507104504 12 271 1.6 6.4 0.00 0.00 0.00 88 1017.4
20260507103603 12 271 1.6 4.8 0.00 0.00 0.00 88 1017.4
20260507102703 13 271 1.6 6.4 0.00 0.00 0.00 87 1017.4
20260507101803 13 271 1.6 6.4 0.00 0.00 0.00 87 1017.4
20260507100903 13 276 3.2 9.7 0.00 0.00 0.00 87 1017.3
20260507100004 13 297 3.2 6.4 0.00 0.00 0.00 87 1017.4
20260507095403 13 296 3.2 6.4 0.00 0.00 0.00 87 1017.3
20260507094503 13 296 3.2 6.4 0.00 0.00 0.00 87 1017.4
20260507093603 13 298 1.6 6.4 0.00 0.00 0.00 87 1017.3
20260507092703 13 299 1.6 6.4 0.00 0.00 0.00 87 1017.5
20260507091804 14 301 0.0 4.8 0.00 0.00 0.00 88 1017.6
20260507090903 14 301 0.0 3.2 0.00 0.00 0.00 87 1017.5
20260507090004 14 301 0.0 3.2 0.00 0.00 0.00 87 1017.5
20260507085403 14 301 0.0 3.2 0.00 0.00 0.00 87 1017.5
20260507084524 14 301 1.6 3.2 0.00 0.00 0.00 87 1017.6
20260507083603 14 301 1.6 3.2 0.00 0.00 0.00 86 1017.4
20260507082703 14 304 1.6 8.0 0.00 0.00 0.00 86 1017.4
20260507081803 14 308 1.6 8.0 0.00 0.00 0.00 85 1017.4
20260507080903 15 313 1.6 4.8 0.00 0.00 0.00 85 1017.4
20260507080003 15 313 1.6 4.8 0.00 0.00 0.00 84 1017.4
20260507075403 15 313 1.6 4.8 0.00 0.00 0.00 84 1017.4
20260507074503 15 313 1.6 4.8 0.00 0.00 0.00 84 1017.5
20260507073603 15 313 1.6 4.8 0.00 0.00 0.00 84 1017.6
20260507072703 15 298 3.2 9.7 0.00 0.00 0.00 83 1017.6
20260507071803 15 290 3.2 6.4 0.00 0.00 0.00 83 1017.5
20260507070903 15 290 3.2 8.0 0.00 0.00 0.00 83 1017.5
20260507070005 15 290 3.2 6.4 0.00 0.00 0.00 82 1017.4
20260507065403 15 290 3.2 6.4 0.00 0.00 0.00 82 1017.4
20260507064503 15 290 1.6 4.8 0.00 0.00 0.00 82 1017.4
20260507063603 15 290 1.6 6.4 0.00 0.00 0.00 81 1017.3
20260507062703 15 290 1.6 4.8 0.00 0.00 0.00 80 1017.3
20260507061803 16 290 1.6 4.8 0.00 0.00 0.00 81 1017.3
20260507060903 16 290 1.6 4.8 0.00 0.00 0.00 80 1017.2
20260507060003 16 290 3.2 6.4 0.00 0.00 0.00 79 1017.3
20260507055403 16 290 3.2 6.4 0.00 0.00 0.00 79 1017.4
20260507054503 16 289 1.6 8.0 0.00 0.00 0.00 79 1017.3
20260507053603 17 290 3.2 8.0 0.00 0.00 0.00 79 1017.4
20260507052703 17 279 3.2 6.4 0.00 0.00 0.00 78 1017.5
20260507051803 17 271 3.2 6.4 0.00 0.00 0.00 78 1017.5
20260507050903 17 280 3.2 9.7 0.00 0.00 0.00 77 1017.4
20260507050003 17 277 1.6 9.7 0.00 0.00 0.00 79 1017.4
20260507045403 18 277 1.6 4.8 0.00 0.00 0.00 78 1017.3
20260507044503 18 277 1.6 3.2 0.00 0.00 0.00 78 1017.3
20260507043603 18 277 1.6 4.8 0.00 0.00 0.00 77 1017.3
20260507042703 18 279 1.6 6.4 0.00 0.00 0.00 77 1017.3